period_start,C,m1,H,J0,J1,J2,J3,J4,J5,JA,JB,JC,JD,JJ,JK,JN,#
2014-08-11 00:03:39,0.03,2.91,0.00,30.88,35.52,37.65,9.37,42.26,1013.19,1999.99,2339.07,2544.94,2686.95,500.41,482.50,11.81,0000 0000 0000 0000 000000
2014-08-11 00:08:40,0.09,2.91,0.00,30.88,35.51,37.63,9.39,42.33,1013.20,1999.99,2338.43,2544.21,2686.26,500.31,482.46,11.85,0000 0000 0000 0000 000000
2014-08-11 00:13:41,0.01,2.91,0.00,30.88,35.50,37.63,9.29,42.26,1013.20,1999.99,2337.88,2543.99,2685.96,499.62,481.95,11.89,0000 0000 0000 0000 000000
2014-08-11 00:18:43,0.08,2.92,0.00,30.87,35.48,37.60,9.31,42.17,1013.21,2000.01,2337.07,2543.47,2685.24,499.89,482.09,11.93,0000 0000 0000 0000 000000
2014-08-11 00:23:43,0.03,2.92,0.00,30.86,35.47,37.57,9.38,42.12,1013.21,2000.04,2336.60,2543.00,2684.93,500.26,482.42,11.98,0000 0000 0000 0000 000000
2014-08-11 00:28:45,0.07,2.92,0.00,30.86,35.45,37.58,9.40,42.29,1013.34,2000.05,2335.87,2542.51,2684.18,500.10,482.57,12.02,0000 0000 0000 0000 000000
2014-08-11 00:33:46,0.05,2.92,0.00,30.83,35.44,37.54,9.35,42.30,1013.46,2000.12,2335.07,2542.01,2683.94,499.92,482.28,12.06,0000 0000 0000 0000 000000
2014-08-11 00:38:47,0.10,2.93,0.00,30.81,35.42,37.54,9.32,42.26,1013.67,2000.36,2334.51,2541.75,2683.19,500.06,482.71,12.10,0000 0000 0000 0000 000000
2014-08-11 00:43:49,0.05,2.93,0.00,30.82,35.41,37.54,9.30,42.27,1013.69,2000.55,2333.95,2541.06,2682.91,499.91,482.52,12.14,0000 0000 0000 0000 000000
2014-08-11 00:48:50,0.08,2.93,0.00,30.81,35.40,37.53,9.31,42.40,1013.70,2000.71,2333.17,2540.85,2682.18,499.90,482.59,12.19,0000 0000 0000 0000 000000
2014-08-11 00:53:51,0.08,2.94,0.00,30.79,35.40,37.50,9.38,42.49,1013.78,2000.86,2332.50,2540.10,2681.86,500.21,483.01,12.23,0000 0000 0000 0000 000000
2014-08-11 00:58:51,0.04,2.94,0.00,30.79,35.38,37.49,9.30,42.33,1013.78,2000.91,2331.81,2539.89,2681.09,500.11,482.72,12.27,0000 0000 0000 0000 000000
2014-08-11 01:03:53,0.07,2.94,0.00,30.78,35.37,37.48,9.34,42.40,1013.76,2000.94,2331.10,2539.17,2680.80,499.79,482.44,12.31,0000 0000 0000 0000 000000
2014-08-11 01:08:54,0.04,2.94,0.00,30.78,35.35,37.47,9.31,42.42,1013.75,2000.97,2330.54,2538.96,2680.06,500.21,482.82,12.35,0000 0000 0000 0000 000000
2014-08-11 01:13:55,0.06,2.95,0.00,30.77,35.35,37.48,9.31,42.43,1013.94,2000.97,2329.87,2538.27,2679.76,499.83,482.58,12.39,0000 0000 0000 0000 000000
2014-08-11 01:18:56,0.04,2.95,0.00,30.77,35.33,37.46,9.35,42.43,1014.09,2000.98,2329.08,2537.99,2679.06,499.94,482.61,12.44,0000 0000 0000 0000 000000
2014-08-11 01:23:57,0.03,2.95,0.00,30.75,35.32,37.45,9.30,42.41,1014.10,2000.99,2328.91,2537.63,2678.79,499.55,482.36,12.48,0000 0000 0000 0000 000000
2014-08-11 01:28:59,0.06,2.95,0.00,30.74,35.31,37.43,9.32,42.46,1014.16,2000.99,2328.10,2537.03,2678.06,499.77,482.85,12.52,0000 0000 0000 0000 000000
2014-08-11 01:34:00,0.04,2.95,0.00,30.74,35.30,37.43,9.36,42.36,1014.17,2000.99,2327.52,2536.85,2677.83,499.94,482.82,12.56,0000 0000 0000 0000 000000
2014-08-11 01:39:01,0.05,2.96,0.00,30.73,35.30,37.41,9.27,42.31,1014.17,2000.99,2326.98,2536.14,2677.10,499.77,482.60,12.60,0000 0000 0000 0000 000000
2014-08-11 01:44:03,0.03,2.96,0.00,30.72,35.28,37.40,9.34,42.28,1014.18,2000.99,2326.32,2535.99,2676.95,500.07,482.93,12.65,0000 0000 0000 0000 000000
2014-08-11 01:49:04,0.03,2.96,0.00,30.73,35.27,37.38,9.37,42.32,1014.19,2000.99,2326.01,2535.75,2676.31,500.43,483.31,12.69,0000 0000 0000 0000 000000
2014-08-11 01:54:05,0.02,2.96,0.00,30.73,35.27,37.38,9.37,42.34,1014.18,2000.99,2325.99,2535.21,2676.02,500.10,483.12,12.73,0000 0000 0000 0000 000000
2014-08-11 01:59:06,0.00,2.96,0.00,30.74,35.25,37.37,9.35,42.46,1014.18,2000.99,2325.97,2535.01,2675.99,499.92,482.67,12.77,0000 0000 0000 0000 000000
2014-08-11 02:04:07,0.03,2.96,0.00,30.74,35.25,37.37,9.30,42.48,1014.19,2000.99,2325.29,2535.00,2675.79,499.78,482.70,12.81,0000 0000 0000 0000 000000
2014-08-11 02:09:09,0.03,2.96,0.00,30.73,35.25,37.36,9.37,42.49,1014.20,2000.99,2324.98,2534.80,2675.13,500.05,482.94,12.85,0000 0000 0000 0000 000000
2014-08-11 02:14:10,0.05,2.97,0.00,30.74,35.23,37.34,9.38,42.42,1014.21,2000.99,2324.54,2534.15,2675.00,499.86,482.81,12.90,0000 0000 0000 0000 000000
2014-08-11 02:19:11,0.01,2.97,0.00,30.75,35.23,37.35,9.38,42.26,1014.27,2000.99,2324.10,2534.00,2674.89,500.13,482.93,12.94,0000 0000 0000 0000 000000
2014-08-11 02:24:12,0.02,2.97,0.00,30.76,35.22,37.35,9.36,42.39,1014.38,2000.99,2324.02,2534.00,2674.40,500.15,483.10,12.98,0000 0000 0000 0000 000000
2014-08-11 02:29:13,0.01,2.97,0.00,30.76,35.22,37.32,9.29,42.48,1014.52,2000.99,2323.93,2533.91,2674.02,499.65,482.57,13.02,0000 0000 0000 0000 000000
2014-08-11 02:34:15,0.04,2.97,0.00,30.78,35.22,37.32,9.31,42.35,1014.47,2000.99,2323.67,2533.46,2673.98,499.80,482.70,13.06,0000 0000 0000 0000 000000
2014-08-11 02:39:16,0.04,2.97,0.00,30.76,35.22,37.32,9.32,42.50,1014.59,2000.99,2322.98,2533.01,2673.60,499.94,483.01,13.11,0000 0000 0000 0000 000000
2014-08-11 02:44:17,0.05,2.97,0.00,30.77,35.22,37.32,9.33,42.31,1014.65,2000.99,2322.37,2532.80,2673.03,500.09,483.13,13.15,0000 0000 0000 0000 000000
2014-08-11 02:49:18,0.03,2.98,0.00,30.81,35.22,37.32,9.34,42.34,1014.66,2000.98,2321.93,2532.09,2672.88,499.86,482.84,13.19,0000 0000 0000 0000 000000
2014-08-11 02:54:19,0.05,2.98,0.00,30.83,35.22,37.33,9.30,42.35,1014.66,2000.99,2321.21,2532.00,2672.27,499.98,483.06,13.23,0000 0000 0000 0000 000000
2014-08-11 02:59:20,0.00,2.98,0.00,30.83,35.22,37.32,9.35,42.47,1014.66,2000.99,2321.00,2531.94,2672.01,499.75,482.82,13.27,0000 0000 0000 0000 000000
2014-08-11 03:04:21,0.06,2.98,0.00,30.84,35.22,37.34,9.31,42.16,1014.66,2000.99,2320.55,2531.31,2671.93,500.03,482.99,13.32,0000 0000 0000 0000 000000
2014-08-11 03:09:22,0.03,2.98,0.00,30.86,35.23,37.34,9.33,42.42,1014.66,2000.99,2320.02,2531.01,2671.31,500.10,483.04,13.36,0000 0000 0000 0000 000000
2014-08-11 03:14:23,0.01,2.98,0.00,30.89,35.23,37.33,9.33,42.41,1014.67,2000.99,2319.87,2530.90,2670.99,499.86,482.77,13.40,0000 0000 0000 0000 000000
2014-08-11 03:19:25,0.06,2.99,0.00,30.92,35.24,37.34,9.38,42.51,1014.69,2000.99,2319.34,2530.27,2670.64,500.09,482.82,13.44,0000 0000 0000 0000 000000
2014-08-11 03:24:26,0.02,2.99,0.00,30.94,35.25,37.35,9.32,42.49,1014.70,2000.98,2318.99,2530.00,2670.03,499.94,482.88,13.48,0000 0000 0000 0000 000000
2014-08-11 03:29:27,0.02,2.99,0.00,30.94,35.25,37.35,9.35,42.42,1014.71,2000.96,2318.64,2529.92,2669.95,500.10,482.91,13.52,0000 0000 0000 0000 000000
2014-08-11 03:34:28,0.06,2.99,0.00,30.96,35.26,37.37,9.28,42.52,1014.69,2000.94,2318.01,2529.20,2669.23,499.59,482.48,13.57,0000 0000 0000 0000 000000
2014-08-11 03:39:29,0.00,2.99,0.00,30.99,35.27,37.38,9.33,42.51,1014.69,2000.86,2317.79,2529.00,2669.00,499.86,482.76,13.61,0000 0000 0000 0000 000000
2014-08-11 03:44:30,0.03,2.99,0.00,30.96,35.27,37.39,9.27,42.32,1014.69,2000.82,2317.09,2528.91,2668.78,500.26,482.97,13.65,0000 0000 0000 0000 000000
2014-08-11 03:49:31,0.03,2.99,0.00,30.92,35.28,37.40,9.29,42.38,1014.72,2000.71,2316.95,2528.37,2668.18,500.09,483.00,13.69,0000 0000 0000 0000 000000
2014-08-11 03:54:32,-0.01,2.99,0.00,30.85,35.29,37.41,9.29,42.49,1014.76,2000.34,2316.28,2528.00,2667.97,499.79,482.71,13.73,0000 0000 0000 0000 000000
2014-08-11 03:59:33,-0.01,2.99,0.00,30.78,35.29,37.41,9.34,42.58,1014.83,2000.21,2316.01,2527.95,2667.56,500.14,483.30,13.77,0000 0000 0000 0000 000000
2014-08-11 04:04:34,0.03,2.99,0.00,30.71,35.28,37.44,9.35,42.52,1014.91,2000.18,2315.93,2527.61,2667.03,500.09,483.34,13.82,0000 0000 0000 0000 000000
2014-08-11 04:09:35,0.04,3.00,0.00,30.65,35.27,37.45,9.31,42.54,1014.77,2000.20,2315.42,2527.14,2667.00,500.04,483.03,13.86,0000 0000 0000 0000 000000
2014-08-11 04:14:37,0.01,3.00,0.00,30.60,35.26,37.48,9.36,42.50,1014.79,2000.25,2315.00,2527.00,2666.91,499.79,483.22,13.90,0000 0000 0000 0000 000000
2014-08-11 04:19:38,0.06,3.00,0.00,30.53,35.25,37.49,9.30,42.59,1014.86,2000.32,2314.65,2526.94,2666.42,499.60,483.23,13.94,0000 0000 0000 0000 000000
2014-08-11 04:24:39,0.02,3.00,0.00,30.45,35.22,37.45,9.36,42.50,1014.79,2000.36,2314.25,2526.77,2666.06,500.24,483.95,13.98,0000 0000 0000 0000 000000
2014-08-11 04:29:40,0.07,3.00,0.00,30.39,35.20,37.40,9.34,42.54,1014.80,2000.55,2314.01,2526.22,2666.00,500.05,483.75,14.03,0000 0000 0000 0000 000000
2014-08-11 04:34:41,0.05,3.01,0.00,30.33,35.18,37.35,9.31,42.61,1014.80,2000.90,2313.72,2526.07,2666.00,499.70,483.44,14.07,0000 0000 0000 0000 000000
2014-08-11 04:39:42,0.02,3.01,0.00,30.26,35.15,37.29,9.35,42.57,1014.84,2000.98,2313.04,2526.00,2665.94,499.84,483.75,14.11,0000 0000 0000 0000 000000
2014-08-11 04:44:43,0.01,3.01,0.00,30.19,35.12,37.25,9.44,42.54,1014.77,2000.99,2313.00,2525.99,2665.62,500.63,484.40,14.15,0000 0000 0000 0000 000000
2014-08-11 04:49:44,0.03,3.01,0.00,30.12,35.09,37.20,9.35,42.59,1014.80,2000.99,2312.57,2525.96,2665.15,500.32,484.48,14.19,0000 0000 0000 0000 000000
2014-08-11 04:54:45,0.02,3.01,0.00,30.06,35.05,37.11,9.32,42.52,1014.80,2001.00,2312.02,2525.77,2665.01,499.66,484.05,14.23,0000 0000 0000 0000 000000
2014-08-11 04:59:46,0.06,3.01,0.00,30.01,35.01,37.06,9.33,42.55,1014.74,2001.19,2311.79,2525.46,2665.01,499.49,483.76,14.28,0000 0000 0000 0000 000000
2014-08-11 05:04:48,0.10,3.02,0.00,29.97,34.98,37.04,9.45,42.58,1014.68,2001.63,2311.15,2525.04,2664.95,500.27,484.50,14.32,0000 0000 0000 0000 000000
2014-08-11 05:09:49,0.03,3.02,0.00,29.93,34.94,36.99,9.35,42.56,1014.66,2001.96,2310.99,2525.00,2664.67,499.80,484.23,14.36,0000 0000 0000 0000 000000
2014-08-11 05:14:50,0.04,3.02,0.00,29.91,34.90,36.91,9.34,42.64,1014.68,2001.99,2310.46,2524.94,2664.18,499.93,484.60,14.40,0000 0000 0000 0000 000000
2014-08-11 05:19:51,0.06,3.02,0.00,29.87,34.86,36.86,9.31,42.47,1014.67,2002.00,2309.70,2524.26,2663.99,499.68,484.15,14.44,0000 0000 0000 0000 000000
2014-08-11 05:24:52,0.03,3.03,0.00,29.85,34.82,36.81,9.38,42.48,1014.67,2002.05,2309.10,2524.00,2663.65,500.20,484.78,14.49,0000 0000 0000 0000 000000
2014-08-11 05:29:54,0.10,3.03,0.00,29.78,34.77,36.81,9.40,42.64,1014.66,2002.37,2308.64,2523.97,2663.09,499.86,484.57,14.53,0000 0000 0000 0000 000000
2014-08-11 05:34:55,0.13,3.03,0.00,29.73,34.73,36.73,9.38,42.53,1014.66,2002.92,2307.68,2523.31,2662.88,499.84,484.80,14.57,0000 0000 0000 0000 000000
2014-08-11 05:39:56,0.04,3.04,0.00,29.68,34.68,36.71,9.40,42.60,1014.66,2002.99,2307.03,2523.00,2662.21,499.68,484.58,14.61,0000 0000 0000 0000 000000
2014-08-11 05:44:57,0.04,3.04,0.00,29.62,34.64,36.68,9.34,42.47,1014.66,2003.03,2306.33,2522.91,2662.00,499.83,484.82,14.65,0000 0000 0000 0000 000000
2014-08-11 05:49:59,0.06,3.04,0.00,29.59,34.59,36.61,9.34,42.62,1014.66,2003.22,2305.94,2522.45,2661.97,499.90,484.93,14.69,0000 0000 0000 0000 000000
2014-08-11 05:55:00,0.11,3.05,0.00,29.54,34.55,36.56,9.40,42.52,1014.66,2003.86,2305.50,2522.11,2661.93,500.30,485.38,14.74,0000 0000 0000 0000 000000
2014-08-11 06:00:02,0.02,3.05,0.00,29.49,34.50,36.48,9.42,42.42,1014.66,2003.99,2305.05,2522.01,2661.57,500.32,485.41,14.78,0000 0000 0000 0000 000000
2014-08-11 06:05:03,0.01,3.05,0.00,29.45,34.46,36.46,9.42,42.48,1014.66,2003.99,2304.97,2522.00,2661.10,500.01,485.09,14.82,0000 0000 0000 0000 000000
2014-08-11 06:10:04,0.00,3.05,0.00,29.40,34.41,36.42,9.37,42.57,1014.66,2004.02,2304.95,2522.00,2661.01,500.09,485.35,14.86,0000 0000 0000 0000 000000
2014-08-11 06:15:05,0.10,3.05,0.00,29.34,34.36,36.37,9.36,42.51,1014.66,2004.42,2304.35,2521.97,2661.00,500.14,485.43,14.90,0000 0000 0000 0000 000000
2014-08-11 06:20:06,0.06,3.06,0.00,29.31,34.31,36.31,9.43,42.52,1014.66,2004.94,2303.96,2521.80,2661.00,500.02,485.39,14.95,0000 0000 0000 0000 000000
2014-08-11 06:25:08,0.04,3.06,0.00,29.29,34.26,36.29,9.43,42.59,1014.66,2004.99,2303.46,2521.40,2660.96,499.80,485.31,14.99,0000 0000 0000 0000 000000
2014-08-11 06:30:09,0.04,3.06,0.00,29.26,34.21,36.20,9.37,42.44,1014.66,2005.13,2303.04,2521.14,2660.83,500.14,485.65,15.03,0000 0000 0000 0000 000000
2014-08-11 06:35:10,0.10,3.06,0.00,29.20,34.16,36.17,9.38,42.38,1014.66,2005.68,2303.00,2521.03,2660.57,500.03,485.47,15.07,0000 0000 0000 0000 000000
2014-08-11 06:40:11,0.03,3.07,0.00,29.15,34.12,36.15,9.40,42.46,1014.66,2005.97,2302.80,2521.00,2660.14,499.86,485.46,15.11,0000 0000 0000 0000 000000
2014-08-11 06:45:12,0.02,3.07,0.00,29.09,34.07,36.09,9.41,42.47,1014.66,2006.00,2302.15,2521.00,2660.02,500.20,485.97,15.15,0000 0000 0000 0000 000000
2014-08-11 06:50:14,0.05,3.07,0.00,29.06,34.02,36.05,9.37,42.27,1014.66,2006.15,2301.73,2520.85,2660.00,499.92,485.80,15.20,0000 0000 0000 0000 000000
2014-08-11 06:55:15,0.12,3.07,0.00,29.02,33.97,35.97,9.37,42.48,1014.64,2006.69,2301.24,2520.25,2659.78,499.50,485.33,15.24,0000 0000 0000 0000 000000
2014-08-11 07:00:16,0.04,3.08,0.00,28.99,33.92,35.95,9.42,42.34,1014.66,2006.90,2301.05,2520.02,2659.11,500.08,486.05,15.28,0000 0000 0000 0000 000000
2014-08-11 07:05:18,0.04,3.08,0.00,28.94,33.87,35.90,9.36,42.35,1014.66,2006.98,2300.23,2519.99,2659.00,500.24,486.18,15.32,0000 0000 0000 0000 000000
2014-08-11 07:10:19,0.03,3.08,0.00,28.95,33.82,35.84,9.45,42.34,1014.66,2007.03,2299.99,2519.76,2658.92,500.32,486.18,15.36,0000 0000 0000 0000 000000
2014-08-11 07:15:20,0.09,3.08,0.00,28.95,33.78,35.82,9.37,42.39,1014.66,2007.27,2299.81,2519.17,2658.40,499.83,485.87,15.41,0000 0000 0000 0000 000000
2014-08-11 07:20:22,0.09,3.09,0.00,28.98,33.73,35.83,9.40,42.31,1014.66,2007.83,2299.11,2519.01,2658.04,500.03,486.04,15.45,0000 0000 0000 0000 000000
2014-08-11 07:25:23,0.02,3.09,0.00,29.03,33.69,35.80,9.35,42.03,1014.66,2007.96,2298.94,2518.98,2658.00,500.01,485.81,15.49,0000 0000 0000 0000 000000
2014-08-11 07:30:24,0.08,3.09,0.00,29.09,33.66,35.74,9.31,42.33,1014.66,2007.99,2298.10,2518.51,2657.62,499.72,485.66,15.53,0000 0000 0000 0000 000000
2014-08-11 07:35:25,0.03,3.09,0.00,29.15,33.63,35.69,9.42,42.27,1014.66,2007.99,2297.79,2518.04,2657.04,499.99,485.62,15.57,0000 0000 0000 0000 000000
2014-08-11 07:40:27,0.02,3.09,0.00,29.24,33.61,35.65,9.36,42.35,1014.66,2008.00,2297.07,2517.98,2656.96,499.76,485.27,15.62,0000 0000 0000 0000 000000
2014-08-11 07:45:28,0.07,3.09,0.00,29.32,33.60,35.63,9.38,42.39,1014.65,2008.08,2296.84,2517.57,2656.52,500.23,485.51,15.66,0000 0000 0000 0000 000000
2014-08-11 07:50:29,0.04,3.10,0.00,29.39,33.58,35.61,9.36,42.31,1014.65,2008.17,2296.11,2517.02,2656.02,499.65,484.94,15.70,0000 0000 0000 0000 000000
2014-08-11 07:55:30,0.06,3.10,0.00,29.45,33.57,35.62,9.32,42.20,1014.66,2008.43,2295.85,2516.97,2655.93,499.55,484.92,15.74,0000 0000 0000 0000 000000
2014-08-11 08:00:31,0.07,3.10,0.00,29.54,33.57,35.62,9.35,42.13,1014.66,2008.51,2295.30,2516.34,2655.24,500.20,485.20,15.78,0000 0000 0000 0000 000000
2014-08-11 08:05:32,0.04,3.11,0.00,29.60,33.57,35.63,9.33,42.27,1014.66,2008.65,2294.99,2516.00,2654.97,499.84,484.73,15.82,0000 0000 0000 0000 000000
2014-08-11 08:10:33,0.07,3.11,0.00,29.64,33.59,35.65,9.34,42.28,1014.67,2008.63,2294.32,2515.76,2654.33,500.10,484.96,15.87,0000 0000 0000 0000 000000
2014-08-11 08:15:34,-0.00,3.11,0.00,29.70,33.60,35.67,9.39,42.38,1014.67,2008.43,2293.98,2515.07,2653.98,500.15,484.87,15.91,0000 0000 0000 0000 000000
2014-08-11 08:20:35,0.07,3.11,0.00,29.78,33.62,35.70,9.29,42.24,1014.66,2008.43,2293.30,2514.95,2653.49,500.10,484.72,15.95,0000 0000 0000 0000 000000
2014-08-11 08:25:36,0.01,3.11,0.00,29.80,33.64,35.74,9.32,42.38,1014.66,2008.24,2293.02,2514.22,2653.00,499.90,484.50,15.99,0000 0000 0000 0000 000000
2014-08-11 08:30:38,0.03,3.11,0.00,29.85,33.66,35.77,9.29,42.29,1014.66,2008.07,2292.39,2513.88,2652.38,499.89,484.59,16.03,0000 0000 0000 0000 000000
2014-08-11 08:35:39,0.05,3.12,0.00,29.88,33.68,35.81,9.39,42.36,1014.66,2008.02,2291.77,2513.10,2651.92,500.15,484.66,16.08,0000 0000 0000 0000 000000
2014-08-11 08:40:40,0.05,3.12,0.00,29.93,33.71,35.85,9.31,42.36,1014.67,2008.00,2291.04,2512.82,2651.16,500.08,484.54,16.12,0000 0000 0000 0000 000000
2014-08-11 08:45:41,0.08,3.12,0.00,29.95,33.74,35.89,9.33,42.21,1014.68,2008.00,2290.37,2512.06,2650.63,499.38,483.75,16.16,0000 0000 0000 0000 000000
2014-08-11 08:50:42,0.06,3.12,0.00,29.97,33.76,35.92,9.38,42.31,1014.68,2007.99,2289.65,2511.69,2650.02,500.15,484.61,16.20,0000 0000 0000 0000 000000
2014-08-11 08:55:43,0.05,3.13,0.00,29.99,33.79,35.97,9.38,42.30,1014.67,2007.99,2288.90,2511.03,2649.40,500.12,484.43,16.24,0000 0000 0000 0000 000000
2014-08-11 09:00:44,0.08,3.13,0.00,30.00,33.82,35.99,9.37,42.33,1014.67,2007.97,2288.05,2510.33,2648.77,499.85,484.20,16.29,0000 0000 0000 0000 000000
2014-08-11 09:05:46,0.03,3.13,0.00,30.04,33.86,36.03,9.36,42.31,1014.68,2007.80,2287.30,2509.88,2648.03,500.30,484.56,16.33,0000 0000 0000 0000 000000
2014-08-11 09:10:47,0.06,3.13,0.00,30.05,33.88,36.07,9.33,42.11,1014.71,2007.60,2286.70,2509.12,2647.46,499.97,484.38,16.37,0000 0000 0000 0000 000000
2014-08-11 09:15:48,-0.02,3.13,0.00,30.10,33.91,36.10,9.36,42.11,1014.75,2007.25,2286.00,2508.76,2646.87,500.52,484.66,16.41,0000 0000 0000 0000 000000
2014-08-11 09:20:50,0.06,3.14,0.00,30.11,33.94,36.13,9.31,42.17,1014.71,2007.05,2285.32,2508.05,2646.12,499.91,484.07,16.45,0000 0000 0000 0000 000000
2014-08-11 09:25:51,0.02,3.14,0.00,30.14,33.96,36.16,9.31,42.04,1014.69,2007.01,2284.94,2507.82,2645.83,499.89,483.98,16.49,0000 0000 0000 0000 000000
2014-08-11 09:30:53,0.08,3.14,0.00,30.16,33.99,36.20,9.36,42.04,1014.68,2007.00,2284.15,2507.06,2645.07,500.18,484.26,16.54,0000 0000 0000 0000 000000
2014-08-11 09:35:54,0.05,3.14,0.00,30.17,34.02,36.22,9.34,42.13,1014.70,2006.99,2283.62,2506.72,2644.60,499.96,483.90,16.58,0000 0000 0000 0000 000000
2014-08-11 09:40:55,0.04,3.14,0.00,30.18,34.04,36.24,9.37,42.07,1014.69,2006.96,2282.94,2506.03,2644.01,500.15,484.04,16.62,0000 0000 0000 0000 000000
2014-08-11 09:45:57,0.07,3.15,0.00,30.18,34.07,36.26,9.34,42.11,1014.70,2006.92,2282.17,2505.63,2643.41,500.13,484.16,16.66,0000 0000 0000 0000 000000
2014-08-11 09:50:58,0.01,3.15,0.00,30.16,34.09,36.29,9.39,42.13,1014.75,2006.70,2281.64,2505.03,2642.93,500.48,484.51,16.70,0000 0000 0000 0000 000000
2014-08-11 09:55:59,0.01,3.15,0.00,30.18,34.11,36.31,9.33,42.02,1014.73,2006.35,2280.97,2504.57,2642.17,499.80,483.95,16.75,0000 0000 0000 0000 000000
2014-08-11 10:01:00,0.03,3.15,0.00,30.18,34.13,36.33,9.27,42.07,1014.69,2006.06,2280.22,2504.01,2641.81,499.51,483.70,16.79,0000 0000 0000 0000 000000
2014-08-11 10:06:01,0.05,3.15,0.00,30.19,34.15,36.35,9.25,42.16,1014.69,2006.02,2279.91,2503.62,2641.07,499.68,483.68,16.83,0000 0000 0000 0000 000000
2014-08-11 10:11:03,0.06,3.15,0.00,30.20,34.17,36.37,9.31,42.05,1014.69,2006.01,2279.11,2503.02,2640.68,500.04,483.96,16.87,0000 0000 0000 0000 000000
2014-08-11 10:16:04,0.05,3.16,0.00,30.18,34.19,36.39,9.31,42.20,1014.67,2006.00,2278.68,2502.65,2640.03,500.11,484.12,16.91,0000 0000 0000 0000 000000
2014-08-11 10:21:05,0.04,3.16,0.00,30.18,34.20,36.40,9.31,42.07,1014.66,2006.00,2278.03,2502.04,2639.70,499.82,484.15,16.96,0000 0000 0000 0000 000000
2014-08-11 10:26:06,0.07,3.16,0.00,30.20,34.22,36.43,9.44,42.03,1014.66,2005.99,2277.27,2501.69,2639.02,500.14,484.11,17.00,0000 0000 0000 0000 000000
2014-08-11 10:31:08,0.05,3.16,0.00,30.19,34.24,36.44,9.39,42.27,1014.66,2005.98,2276.80,2501.03,2638.45,500.06,484.10,17.04,0000 0000 0000 0000 000000
2014-08-11 10:36:09,0.04,3.17,0.00,30.23,34.25,36.45,9.29,42.20,1014.58,2005.97,2276.11,2500.77,2637.98,499.84,483.83,17.08,0000 0000 0000 0000 000000
2014-08-11 10:41:10,0.06,3.17,0.00,30.24,34.27,36.45,9.26,41.98,1014.57,2005.90,2275.39,2500.04,2637.25,499.70,483.61,17.12,0000 0000 0000 0000 000000
2014-08-11 10:46:11,0.02,3.17,0.00,30.25,34.28,36.47,9.38,42.09,1014.55,2005.82,2274.89,2499.69,2636.92,500.05,483.90,17.17,0000 0000 0000 0000 000000
2014-08-11 10:51:13,0.04,3.17,0.00,30.22,34.30,36.49,9.31,42.00,1014.66,2005.59,2274.06,2499.03,2636.13,499.92,483.92,17.21,0000 0000 0000 0000 000000
2014-08-11 10:56:14,0.07,3.17,0.00,30.20,34.30,36.50,9.33,42.08,1014.66,2005.47,2273.24,2498.58,2635.73,499.78,483.75,17.25,0000 0000 0000 0000 000000
2014-08-11 11:01:15,0.05,3.18,0.00,30.18,34.32,36.51,9.31,42.11,1014.66,2005.57,2272.69,2498.02,2635.05,499.92,484.07,17.29,0000 0000 0000 0000 000000
2014-08-11 11:06:16,0.04,3.18,0.00,30.19,34.32,36.52,9.34,41.92,1014.66,2005.60,2272.03,2497.71,2634.70,500.18,484.06,17.33,0000 0000 0000 0000 000000
2014-08-11 11:11:18,0.05,3.18,0.00,30.18,34.34,36.53,9.39,42.18,1014.66,2005.45,2271.35,2497.02,2634.01,500.26,484.10,17.38,0000 0000 0000 0000 000000
2014-08-11 11:16:19,0.05,3.18,0.00,30.15,34.35,36.53,9.38,42.13,1014.66,2005.33,2270.83,2496.59,2633.35,500.21,484.30,17.42,0000 0000 0000 0000 000000
2014-08-11 11:21:20,0.03,3.19,0.00,30.16,34.35,36.55,9.36,42.08,1014.66,2005.23,2270.02,2496.02,2632.88,499.83,484.11,17.46,0000 0000 0000 0000 000000
2014-08-11 11:26:21,0.06,3.19,0.00,30.13,34.36,36.55,9.38,42.18,1014.66,2005.08,2269.19,2495.50,2632.10,500.06,484.10,17.50,0000 0000 0000 0000 000000
2014-08-11 11:31:22,0.03,3.19,0.00,30.11,34.37,36.56,9.42,42.07,1014.67,2005.05,2268.78,2495.01,2631.73,500.43,484.48,17.54,0000 0000 0000 0000 000000
2014-08-11 11:36:23,0.06,3.19,0.00,30.11,34.37,36.56,9.36,42.10,1014.70,2005.03,2268.05,2494.64,2631.03,500.21,484.45,17.59,0000 0000 0000 0000 000000
2014-08-11 11:41:24,0.03,3.19,0.00,30.09,34.38,36.57,9.30,42.03,1014.88,2005.01,2267.92,2494.02,2630.52,499.48,483.85,17.63,0000 0000 0000 0000 000000
2014-08-11 11:46:25,0.03,3.20,0.00,30.11,34.38,36.57,9.35,42.25,1014.75,2005.00,2267.44,2493.87,2630.01,499.74,484.11,17.67,0000 0000 0000 0000 000000
2014-08-11 11:51:27,0.05,3.20,0.00,30.10,34.38,36.58,9.34,42.27,1014.69,2005.00,2267.08,2493.19,2629.74,500.11,484.34,17.71,0000 0000 0000 0000 000000
2014-08-11 11:56:28,0.04,3.20,0.00,30.09,34.39,36.58,9.32,42.17,1014.68,2004.99,2266.56,2492.98,2629.06,500.06,484.26,17.75,0000 0000 0000 0000 000000
2014-08-11 12:01:29,0.04,3.20,0.00,30.08,34.40,36.58,9.22,42.10,1014.66,2004.99,2266.00,2492.54,2628.88,499.43,483.68,17.79,0000 0000 0000 0000 000000
2014-08-11 12:06:30,0.04,3.20,0.00,30.07,34.40,36.57,9.35,42.13,1014.67,2004.98,2265.62,2492.03,2628.14,500.42,484.81,17.84,0000 0000 0000 0000 000000
2014-08-11 12:11:30,0.01,3.20,0.00,30.04,34.40,36.57,9.34,42.07,1014.68,2004.97,2265.06,2492.00,2628.00,500.02,484.27,17.88,0000 0000 0000 0000 000000
2014-08-11 12:16:31,0.06,3.21,0.00,30.04,34.40,36.58,9.33,42.05,1014.71,2004.98,2264.74,2491.52,2627.57,499.94,484.18,17.92,0000 0000 0000 0000 000000
2014-08-11 12:21:33,0.03,3.21,0.00,30.03,34.40,36.57,9.32,42.17,1014.70,2004.90,2264.04,2491.02,2627.01,499.66,484.13,17.96,0000 0000 0000 0000 000000
2014-08-11 12:26:34,0.06,3.21,0.00,30.00,34.40,36.58,9.46,42.11,1014.70,2004.92,2263.39,2490.80,2626.64,499.97,484.36,18.00,0000 0000 0000 0000 000000
2014-08-11 12:31:35,0.06,3.21,0.00,29.99,34.40,36.57,9.41,42.08,1014.67,2004.96,2262.98,2490.13,2626.04,500.03,484.35,18.05,0000 0000 0000 0000 000000
2014-08-11 12:36:36,0.03,3.21,0.00,29.98,34.40,36.56,9.45,42.13,1014.66,2004.96,2262.33,2489.98,2625.93,500.18,484.57,18.09,0000 0000 0000 0000 000000
2014-08-11 12:41:37,0.06,3.22,0.00,30.00,34.40,36.56,9.36,42.07,1014.66,2004.95,2261.88,2489.47,2625.22,499.98,484.24,18.13,0000 0000 0000 0000 000000
2014-08-11 12:46:38,0.03,3.22,0.00,29.98,34.38,36.56,9.41,42.17,1014.66,2004.95,2261.25,2489.02,2624.98,500.63,484.60,18.17,0000 0000 0000 0000 000000
2014-08-11 12:51:39,0.05,3.22,0.00,29.97,34.38,36.55,9.40,42.20,1014.66,2004.98,2260.69,2488.89,2624.34,500.18,484.60,18.21,0000 0000 0000 0000 000000
2014-08-11 12:56:40,0.05,3.22,0.00,29.94,34.38,36.54,9.34,42.22,1014.66,2004.97,2260.03,2488.16,2624.01,499.98,484.47,18.26,0000 0000 0000 0000 000000
2014-08-11 13:01:41,0.03,3.22,0.00,29.93,34.37,36.54,9.35,42.15,1014.67,2004.95,2259.77,2488.00,2623.63,500.10,484.59,18.30,0000 0000 0000 0000 000000